Flag for Canada Weather past 2 weeks in Sarnia, Ontario, Canada

Now
1 °F

Clear.


Feels Like: -11 °F
Forecast: -2 / 21 °F
Wind: 7 mph from South

Location: Sarnia Airport

Current Time: Mar 6, 2015 at 3:06:48 AM

Latest Report: Mar 6, 2015 at 2:00 AM


Visibility: 9 mi

Pressure: 30.54 "Hg

Humidity: 65%

Dew point: -8 °F

Location of SarniaLocation

Historic Weather in Sarnia — Graph

°F

Sarnia temperature yesterday

Maximum temperature yesterday: 14 °F (at 12:00 AM)
Minimum temperature yesterday: 1 °F (at 11:00 PM)
Average temperature yesterday: 8 °F

Past Weeks' High & Low Weather Summary

 TemperatureHumidityPressure
High34 °F (Mar 3, 8:00 PM)100% (Mar 3, 5:00 PM)30.80 "Hg (Mar 3, 5:00 PM)
Low-11 °F (Feb 20, 5:00 AM)34% (Mar 4, 4:00 PM)29.58 "Hg (Mar 3, 6:02 PM)
Average11 °F70%30.25 "Hg
* Reported Feb 19 1:00 AM — Mar 6 1:00 AM, Sarnia, Weather by CustomWeather, © 2015

Note: Actual official high and low records may vary slightly from our data, if they occured in-between our weather recording intervals... More about our weather records

Advertising

Sarnia weather history for previous 24 hours

 ConditionsComfort  
Time TempWeatherWind HumidityBarometerVisibility
1:00 AM
Fri, Mar 6
1 °FClear.8 mph65%30.54 "Hg9 mi
12:00 AM1 °FClear.7 mph65%30.54 "Hg9 mi
11:00 PM
Thu, Mar 5
1 °FClear.9 mph65%30.54 "Hg9 mi
10:00 PM3 °FClear.6 mph60%30.54 "Hg9 mi
9:00 PM3 °FClear.6 mph60%30.53 "Hg9 mi
8:00 PM7 °FClear.3 mph56%30.53 "Hg9 mi
7:00 PM9 °FClear.No wind51%30.51 "Hg9 mi
6:00 PM9 °FSunny.9 mph56%30.49 "Hg9 mi
5:00 PM12 °FSunny.9 mph48%30.46 "Hg9 mi
4:00 PM12 °FSunny.12 mph48%30.45 "Hg9 mi
3:00 PM10 °FSunny.9 mph52%30.43 "Hg9 mi
2:00 PM10 °FSunny.9 mph52%30.43 "Hg9 mi
1:00 PM10 °FSunny.10 mph52%30.44 "Hg9 mi
12:00 PM10 °FSunny.14 mph52%30.44 "Hg9 mi
11:00 AM9 °FPartly sunny.10 mph56%30.44 "Hg9 mi
10:00 AM7 °FPartly sunny.10 mph61%30.44 "Hg9 mi
9:00 AM7 °FSunny.7 mph61%30.43 "Hg9 mi
8:00 AM5 °FPartly sunny.8 mph60%30.41 "Hg9 mi
7:00 AM5 °FPassing clouds.10 mph66%30.36 "Hg9 mi
6:00 AM5 °FClear.9 mph72%30.36 "Hg9 mi
5:00 AM9 °FOvercast.7 mph72%30.34 "Hg9 mi
4:02 AM9 °FLight snow. Mostly cloudy.3 mph78%30.32 "Hg6 mi
3:00 AM9 °FLight snow. Mostly cloudy.10 mph85%30.33 "Hg3 mi
Weather by CustomWeather, © 2015

See weather overviewHow to use our weather pages